Regional Weather Roundup
Issued by NWS Jackson, KY

Home | Current Version | Previous Version | Text Only | Print | Product List | Glossary Off
Versions: 1 2 3 4 5 6 7 8 9 10 11 12 13 14 15 16 17 18 19 20 21 22 23 24 25 26 27 28 29 30 31 32 33 34 35 36 37 38 39 40 41 42 43 44 45 46 47 48 49 50

000
ASUS43 KJKL 090110
RWRJKL

EAST KENTUCKY HOURLY WEATHER ROUNDUP
NATIONAL WEATHER SERVICE JACKSON KY
800 PM EST MON FEB 08 2016

NOTE: "FAIR" INDICATES FEW OR NO CLOUDS BELOW 12,000 FEET WITH
NO SIGNIFICANT WEATHER AND/OR OBSTRUCTIONS TO VISIBILITY.

* THESE REPORTS ARE NOT UNDER NWS QUALITY CONTROL AND MAY NOT
  REPORT WEATHER SUCH AS PRECIPITATION AND FOG.

KYZ079-080-083-085-087-088-110-112-115-119-120-090200
...EASTERN KENTUCKY...

CITY           SKY/WX    TMP DP  RH WIND       PRES   REMARKS
JACKSON        LGT SNOW  31  27  85 W9G22     29.71R FOG     WCI  23
LONDON         LGT SNOW  32  28  85 SW7       29.75R FOG     WCI  26
SOMERSET*      LGT SNOW  30  30 100 W12       29.81R WCI  21
MONTICELLO*    FLURRIES  29  26  89 W14G24    29.83R WCI  18
WILLIAMSBURG*  CLOUDY    32  32 100 CALM      29.76S VSB 1
MIDDLESBORO*   FLURRIES  34  29  83 CALM      29.75F
HARLAN APT*    CLOUDY    32  28  86 SW6       29.73S WCI  26
HAZARD APT*    LGT SNOW N/A N/A N/A W7        29.73R
BIG SANDY*     CLOUDY    34  30  86 W3        29.69S
MOREHEAD APT*  LGT SNOW  32  30  93 SW8       29.73R WCI  25
$$

KYZ035-036-041-042-044-050-067-078-099-090200
...CENTRAL KENTUCKY...

CITY           SKY/WX    TMP DP  RH WIND       PRES   REMARKS
MT STERLING*   CLOUDY    32  30  93 W9        29.74R WCI  24
DANVILLE*      CLOUDY    30  28  93 W15G23    29.78R WCI  19
RICHMOND*      CLOUDY    30  28  93 W14G20    29.75R WCI  20
LEXINGTON      LGT SNOW  29  26  89 W17G24    29.75R FOG     WCI  17
FRANKFORT      LGT SNOW  29  25  85 W12G21    29.76R FOG     WCI  19
$$

KYZ091>093-OHZ055-061-077-WVZ005-015-034-035-042-090200
...SOUTHERN OHIO/WEST VIRGINIA...

CITY           SKY/WX    TMP DP  RH WIND       PRES   REMARKS
COVINGTON      LGT SNOW  28  26  92 W17       29.72R VSB 1   WCI  16
COLUMBUS       CLOUDY    34  34 100 CALM      29.63S
DAYTON         CLOUDY    31  28  89 NW16      29.66S WCI  20
WILMINGTON     LGT SNOW  32  31  96 W6        29.65R FOG     WCI  26
HUNTINGTON     CLOUDY    35  30  82 SW6       29.68S WCI  30
CHARLESTON     CLOUDY    34  31  88 SW8       29.67S WCI  27
PINEVILLE*     CLOUDY    32  30  91 MISG      29.71F
BECKLEY        MOCLDY    29  26  89 W7        29.63S WCI  22
$$

VAZ002-007-008-TNZ017-027-036-066-071-090200
...SOUTHWEST VIRGINIA/EAST TENNESSEE...

CITY           SKY/WX    TMP DP  RH WIND       PRES   REMARKS
BRISTOL        FLURRIES  34  32  92 SW7       29.72R WCI  28
KNOXVILLE      CLOUDY    39  23  52 SW9       29.76S WCI  33
OAK RIDGE      CLOUDY    39  26  59 W6        29.77S WCI  35
CROSSVILLE     LGT SNOW  28  23  81 W18G26    29.80R WCI  15
NASHVILLE      CLOUDY    32  24  72 W9G18     29.90R WCI  24
$$

...KEY TO REMARKS...
VSB - VISIBILITY IN MILES
WCI - WIND CHILL INDEX
HX  - HEAT INDEX

$$



USA.gov is the U.S. government's official web portal to all federal, state and local government web resources and services.